Location: Clermont
(50.2608°N, 4.3172°E)
Time: 16:07:07
(UTC+00:00)

Cosmos 1850 Rocket - Pass Details

Date: 13 August 2020
Orbit: 755 x 784 km, 74.0° (Epoch: 19 September)

Event Time Altitude Azimuth Distance (km) Brightness Sun altitude
Exits shadow 21:30:32 - 211° (SSW) 2,989 6.8 -18.8°
Reaches altitude 10° 21:32:16 10° 214° (SSW) 2,323 6.3 -18.9°
Maximum altitude 21:37:31 67° 296° (WNW) 840 4.3 -19.4°
Drops below altitude 10° 21:42:46 10° 20° (NNE) 2,320 7.0 -19.9°
Sets 21:45:10 0° 23° (NNE) 3,245 7.7 -20.1°
